Regional Weather Roundup
Issued by NWS

Home | Current Version | Previous Version | Graphics & Text | Print | Product List | Glossary On
Versions: 1 2 3 4 5 6 7 8 9 10 11 12 13 14 15 16 17 18 19 20 21 22 23 24 25 26 27 28 29 30 31 32 33 34 35 36 37 38 39 40 41 42 43 44 45 46 47 48 49 50
000
ASUS43 KMKX 241811
RWRWI

WISCONSIN REGIONAL WEATHER ROUNDUP
NATIONAL WEATHER SERVICE MILWAUKEE/SULLIVAN WI
100 PM CDT WED AUG 24 2016

NOTE: "FAIR" INDICATES FEW OR NO CLOUDS BELOW 12,000 FEET WITH NO
SIGNIFICANT WEATHER AND/OR OBSTRUCTIONS TO VISIBILITY.

WIZ001-002-006>008-014>016-023>028-241900-
NORTHWEST WISCONSIN

CITY           SKY/WX    TMP DP  RH WIND       PRES   REMARKS
SUPERIOR ARPT  PTSUNNY   77  69  77 SW8       29.82S
6HR MIN TEMP:  65; 6HR MAX TEMP:  77;

ASHLAND        MOSUNNY   76  66  71 W9        29.82F
6HR MIN TEMP:  67; 6HR MAX TEMP:  78;

HAYWARD        CLOUDY    73  65  75 W8        29.87R
6HR MIN TEMP:  66; 6HR MAX TEMP:  74; 6HR PCP:  0.01;

SIREN          PTSUNNY   74  67  77 W9        29.88S
6HR MIN TEMP:  66; 6HR MAX TEMP:  74; 6HR PCP:  0.01;

CUMBERLAND     PTSUNNY   72  63  73 W10       29.89S
RICE LAKE      CLOUDY    73  65  77 W8        29.90S
6HR MIN TEMP:  67; 6HR MAX TEMP:  73; 6HR PCP:  0.01;

CHETEK         NOT AVBL
LADYSMITH      CLOUDY    74  66  77 W10       29.90R
6HR MIN TEMP:  66; 6HR MAX TEMP:  74; 6HR PCP:  0.01;

EAU CLAIRE     PTSUNNY   78  67  68 W10       29.88R HX  80
6HR MIN TEMP:  67; 6HR MAX TEMP:  79;

MENOMONIE      PTSUNNY   78  67  69 W9        29.89S HX  80
6HR MIN TEMP:  67; 6HR MAX TEMP:  78;

NEW RICHMOND   CLOUDY    73  69  85 W9        29.91R
6HR MIN TEMP:  67; 6HR MAX TEMP:  74; 6HR PCP:  0.01;

OSCEOLA        MOSUNNY   76  71  85 W10       29.92S
6HR MIN TEMP:  67; 6HR MAX TEMP:  76;

$$

WIZ003>005-009-010-017-018-241900-
NORTH CENTRAL WISCONSIN

CITY           SKY/WX    TMP DP  RH WIND       PRES   REMARKS
MANITOWISH WTR NOT AVBL
ARBOR VITAE    LGT RAIN  72  68  88 W8        29.86R
6HR MIN TEMP:  65; 6HR MAX TEMP:  72; 6HR PCP:  0.16;

WOODRUFF       LGT RAIN  72  68  88 W8        29.86R
6HR MIN TEMP:  65; 6HR MAX TEMP:  72; 6HR PCP:  0.16;

RHINELANDER    CLOUDY    70  68  93 W10       29.87S
6HR MIN TEMP:  66; 6HR MAX TEMP:  71; 6HR PCP:  0.19;

EAGLE RIVER    CLOUDY    72  70  91 W10       29.85S
6HR MIN TEMP:  64; 6HR MAX TEMP:  72;

LAND O LAKES   CLOUDY    70  67  89 W5        29.85F
6HR MIN TEMP:  64; 6HR MAX TEMP:  70; 6HR PCP:  0.01;

PHILLIPS       CLOUDY    71  67  89 W7        29.87R
6HR MIN TEMP:  65; 6HR MAX TEMP:  71; 6HR PCP:  0.04;

TOMAHAWK       CLOUDY    71  65  82 W6        29.88R
6HR MIN TEMP:  64; 6HR MAX TEMP:  71;

MEDFORD        CLOUDY    73  69  86 W12G17    29.88S
6HR MIN TEMP:  65; 6HR MAX TEMP:  74;

MERRILL        CLOUDY    74  68  82 SW10      29.87F
6HR MIN TEMP:  66; 6HR MAX TEMP:  74;

$$

WIZ029-030-035-036-043>047-241900-
CENTRAL WISCONSIN

CITY           SKY/WX    TMP DP  RH WIND       PRES   REMARKS
WAUSAU         LGT RAIN  69  67  93 W8        29.87S FOG
6HR MIN TEMP:  67; 6HR MAX TEMP:  69; 6HR PCP:  0.07;

MOSINEE        CLOUDY    70  70 100 SW10      29.89S FOG
MARSHFIELD     CLOUDY    71  68  90 W9        29.89R
6HR MIN TEMP:  67; 6HR MAX TEMP:  71;

STEVENS POINT  DRIZZLE   68  68 100 SW9       29.89S
6HR MIN TEMP:  65; 6HR MAX TEMP:  68; 6HR PCP:  0.02;

WAUPACA        CLOUDY    78  71  77 SW10G18   29.88S HX  81
6HR MIN TEMP:  70; 6HR MAX TEMP:  79;

WAUTOMA        PTSUNNY   78  70  76 SW13G22   29.89F HX  80
6HR MIN TEMP:  67; 6HR MAX TEMP:  78; 6HR PCP:  0.28;

WISC RAPIDS    LGT RAIN  71  71 100 SW7       29.90S FOG
6HR MIN TEMP:  67; 6HR MAX TEMP:  71; 6HR PCP:  0.06;

CAMP DOUGLAS   PTSUNNY   75  70  83 SW10      29.89R
$$

WIZ011>013-019>022-031-037>040-048>050-241900-
NORTHEAST WISCONSIN

CITY           SKY/WX    TMP DP  RH WIND       PRES   REMARKS
ANTIGO         CLOUDY    67  67 100 SW7       29.88S FOG
6HR MIN TEMP:  65; 6HR MAX TEMP:  67; 6HR PCP:  0.13;

SHAWANO        CLOUDY    75  69  81 SW7       29.86S
6HR MIN TEMP:  69; 6HR MAX TEMP:  75; 6HR PCP:  0.01;

OCONTO         NOT AVBL
STURGEON BAY   CLOUDY    76  68  76 SW9       29.87R
6HR MIN TEMP:  66; 6HR MAX TEMP:  78; 6HR PCP:  0.90;

GREEN BAY      CLOUDY    77  70  79 S12G21    29.86F
6HR MIN TEMP:  68; 6HR MAX TEMP:  77; 6HR PCP: TRACE;

MANITOWOC      CLOUDY    79  67  66 SW14      29.88F HX  81
6HR MIN TEMP:  66; 6HR MAX TEMP:  79; 6HR PCP: TRACE;

APPLETON       PTSUNNY   75  64  69 SW13G18   29.88S
CLINTONVILLE   CLOUDY    73  68  83 SW10      29.86F
OSHKOSH        CLOUDY    77  68  73 SW17G25   29.88F
6HR MIN TEMP:  68; 6HR MAX TEMP:  78; 6HR PCP:  0.01;

$$

WIZ032>034-041-042-053>061-241900-
SOUTHWEST WISCONSIN

CITY           SKY/WX    TMP DP  RH WIND       PRES   REMARKS
LA CROSSE      CLOUDY    77  50  39 S8        29.89R
6HR MIN TEMP:  69; 6HR MAX TEMP:  77; 6HR PCP:  0.03;

SPARTA         CLOUDY    73  70  90 SW5       29.91R
6HR MIN TEMP:  65; 6HR MAX TEMP:  74;

VIROQUA        CLOUDY    74  71  91 SW6       29.93R
6HR MIN TEMP:  65; 6HR MAX TEMP:  75; 6HR PCP:  0.01;

BOSCOBEL       CLOUDY    82  72  71 SW5       29.91R HX  87
6HR MIN TEMP:  68; 6HR MAX TEMP:  82;

PRAIRIE DU CHI CLOUDY    81  70  69 S6        29.89F HX  85
6HR MIN TEMP:  65; 6HR MAX TEMP:  81;

PLATTEVILLE    CLOUDY    79  75  89 S13       29.94S HX  82
6HR MIN TEMP:  66; 6HR MAX TEMP:  79;

$$

WIZ056-057-062-063-064-067-068-241900-
SOUTH CENTRAL WISCONSIN

CITY           SKY/WX    TMP DP  RH WIND       PRES   REMARKS
REEDSBURG      NOT AVBL
BARABOO/DELLS  CLOUDY    78  70  76 SW13G20   29.90F HX  80
6HR MIN TEMP:  65; 6HR MAX TEMP:  78; 6HR PCP:  0.03;

LONE ROCK      PTSUNNY   80  72  76 SW9       29.91F HX  84
6HR MIN TEMP:  66; 6HR MAX TEMP:  80;

MINERAL POINT  CLOUDY    79  73  83 SW12G17   29.94S HX  82
MADISON        PTSUNNY   80  71  74 SW9       29.91F HX  84
6HR MIN TEMP:  67; 6HR MAX TEMP:  80; 6HR PCP:  0.14;

MIDDLETON      CLOUDY    82  72  72 SW14      29.92F HX  86
6HR MIN TEMP:  67; 6HR MAX TEMP:  82; 6HR PCP:  0.11;

WATERTOWN      CLOUDY    77  71  79 S13G22    29.93R
6HR MIN TEMP:  67; 6HR MAX TEMP:  78; 6HR PCP:  0.22;

MONROE         PTSUNNY   79  72  78 SW13      29.94S HX  82
JANESVILLE     PTSUNNY   81  72  74 S9        29.93S HX  84
$$

WIZ051-052-058>065-066-070>072-241900-
SOUTHEAST WISCONSIN

CITY           SKY/WX    TMP DP  RH WIND       PRES   REMARKS
MILWAUKEE      CLOUDY    81  70  69 SW13G21   29.92F HX  84
6HR MIN TEMP:  71; 6HR MAX TEMP:  81; 6HR PCP:  0.21;

WAUKESHA       CLOUDY    73  68  83 SW9G16    29.95R
MILWAUKEE/TIMM PTSUNNY   79  66  65 SW15G24   29.94R HX  81
RACINE         CLOUDY    78  70  76 S9        29.94F HX  80
6HR MIN TEMP:  71; 6HR MAX TEMP:  78; 6HR PCP:  0.17;

BURLINGTON     PTSUNNY   75  68  80 SW10      29.94S
6HR MIN TEMP:  66; 6HR MAX TEMP:  76; 6HR PCP:  0.13;

KENOSHA        CLOUDY    77  70  79 SW12      29.94F
6HR MIN TEMP:  70; 6HR MAX TEMP:  77; 6HR PCP:  0.22;

FOND DU LAC    CLOUDY    77  69  76 SW15G26   29.90F
6HR MIN TEMP:  68; 6HR MAX TEMP:  77; 6HR PCP:  0.03;

SHEBOYGAN      CLOUDY    82  68  62 SW18G24   29.90S HX  85
6HR MIN TEMP:  69; 6HR MAX TEMP:  82; 6HR PCP:  0.07;

WEST BEND      CLOUDY    77  68  73 SW15G24   29.92S
JUNEAU         CLOUDY    76  70  81 S18       29.93F
6HR MIN TEMP:  66; 6HR MAX TEMP:  77; 6HR PCP:  0.08;

$$

LSZ147-162-241900-
LAKE SUPERIOR

STATION/POSITION TIME  TEMP    WIND        PRES    WAVE
                       AIR SEA DIR/SP/G            HT/PER
                 (UTC) (F)     (DEG/KT/KT) (MB)    (FT/S)
W MID LAKE BUOY  1750   69 68  210/  6/  8 1008.1F   1
DEVILS ISLAND    1800   70     250/  7/ 11 1009.0F
PORT WING        1700   70     280/ 10/ 12 1010.2S
SAXON HARBOR     1700   72     360/  3/  5 1009.5S
$$

LMZ867-665-643>646-241900-
LAKE MICHIGAN

STATION/POSITION TIME  TEMP    WIND        PRES    WAVE
                       AIR SEA DIR/SP/G            HT/PER
                 (UTC) (F)     (DEG/KT/KT) (MB)    (FT/S)
CHAMBERS ISLAND  1700   72     200/  5/ 11 1010.5F
S GREEN BAY BUOY 1730   74 73  210/ 14/ 16 1010.5S
N MID LAKE BUOY  1650   71 70  210/ 17/ 19 1009.8F   8/ 7
NORTHPORT PIER   1700   72     200/  4/ C1F1C2F2C3F3C4F4C5F5C6F6C7F7C8M1C9M2Ca!



USA.gov is the U.S. government's official web portal to all federal, state and local government web resources and services.